SUPERBIRD-C2

Last updated on Thu Nov 21 2024 00:02:41 GMT+0000 (Coordinated Universal Time)

1 33274U 08038A 24325.24080600 -.00000248 00000+0 00000+0 0 9997 2 33274 0.8750 88.6389 0001902 163.7977 37.9724 1.00279090 99979
UTC large
Height (km)
Speed (km/s)
/
Latitude / Longitude
Inclination (degrees)
Orbital Period (minutes)
Azimuth
Elevation
Range (km)
Doppler Factor

Next 0 passes for location: London (51.5072 / 0.1276)

Sorry there are no passes over London.